| time (UTC) | temp F | wind direction | speed knots | gust knots | rain 1hr in | rain 24hr in | rain mn in | humidity % | barometer mb |
| 20260505161651 | 58 | 298 | 0.9 | 1.7 | 0.00 | 1.02 | 1.02 | 99 | 1012.5 |
| 20260505160149 | 58 | 260 | 0.9 | 0.9 | 0.42 | 1.02 | 1.02 | 99 | 1012.0 |
| 20260505153145 | 58 | 296 | 0.0 | 0.0 | 0.00 | 0.93 | 0.93 | 99 | 1011.9 |
| 20260505151645 | 58 | 251 | 0.9 | 0.9 | 0.00 | 0.93 | 0.93 | 99 | 1011.7 |
| 20260505150142 | 58 | 70 | 0.9 | 0.9 | 0.00 | 0.93 | 0.93 | 99 | 1012.4 |
| 20260505140130 | 58 | 257 | 0.0 | 0.0 | 0.00 | 0.88 | 0.88 | 99 | 1013.4 |
| 20260505130123 | 58 | 280 | 7.0 | 13.9 | 0.31 | 0.70 | 0.70 | 99 | 1014.9 |
| 20260505124618 | 58 | 295 | 7.0 | 9.6 | 0.26 | 0.62 | 0.62 | 99 | 1014.1 |
| 20260505123114 | 59 | 266 | 9.6 | 13.9 | 0.50 | 0.55 | 0.55 | 99 | 1013.5 |
| 20260505121610 | 63 | 318 | 7.0 | 9.6 | 0.12 | 0.28 | 0.28 | 96 | 1013.4 |
| 20260505120105 | 67 | 14 | 2.6 | 5.2 | 0.00 | 0.26 | 0.26 | 92 | 1011.3 |
| 20260505114600 | 69 | 196 | 0.9 | 0.9 | 0.00 | 0.26 | 0.26 | 86 | 1012.4 |
| 20260505113055 | 70 | 86 | 3.5 | 5.2 | 0.00 | 0.26 | 0.26 | 83 | 1012.0 |
| 20260505111555 | 71 | 46 | 3.5 | 6.1 | 0.00 | 0.26 | 0.26 | 81 | 1011.8 |
| 20260505101543 | 70 | 84 | 4.3 | 5.2 | 0.00 | 0.26 | 0.26 | 82 | 1014.0 |
| 20260505100038 | 70 | 139 | 3.5 | 5.2 | 0.00 | 0.26 | 0.26 | 82 | 1014.2 |
| 20260505094533 | 70 | 52 | 2.6 | 4.3 | 0.00 | 0.26 | 0.26 | 83 | 1014.6 |
| 20260505093030 | 72 | 75 | 3.5 | 6.1 | 0.00 | 0.26 | 0.26 | 80 | 1014.7 |
| 20260505091527 | 70 | 53 | 2.6 | 2.6 | 0.00 | 0.26 | 0.26 | 82 | 1015.0 |
| 20260505090027 | 70 | 81 | 2.6 | 5.2 | 0.00 | 0.26 | 0.26 | 83 | 1015.1 |
| 20260505084525 | 69 | 3 | 2.6 | 4.3 | 0.00 | 0.26 | 0.26 | 85 | 1015.5 |
| 20260505083022 | 68 | 39 | 1.7 | 1.7 | 0.00 | 0.26 | 0.26 | 86 | 1015.9 |
| 20260505081517 | 67 | 52 | 3.5 | 6.1 | 0.00 | 0.26 | 0.26 | 88 | 1016.3 |
| 20260505080013 | 65 | 134 | 2.6 | 4.3 | 0.00 | 0.26 | 0.26 | 93 | 1016.2 |
| 20260505074509 | 63 | 102 | 0.9 | 1.7 | 0.00 | 0.26 | 0.26 | 96 | 1016.5 |
| 20260505073008 | 65 | 358 | 0.0 | 0.0 | 0.00 | 0.26 | 0.26 | 93 | 1016.9 |
| 20260505071507 | 64 | 103 | 1.7 | 2.6 | 0.00 | 0.26 | 0.26 | 93 | 1017.0 |
| 20260505070003 | 62 | 198 | 0.0 | 0.0 | 0.00 | 0.26 | 0.26 | 98 | 1017.1 |
| 20260505064459 | 60 | 146 | 0.9 | 1.7 | 0.00 | 0.26 | 0.26 | 99 | 1017.3 |
| 20260505062956 | 60 | 242 | 0.0 | 0.0 | 0.00 | 0.26 | 0.26 | 99 | 1017.4 |
| 20260505061454 | 60 | 241 | 0.0 | 0.0 | 0.00 | 0.26 | 0.26 | 99 | 1017.2 |
| 20260505055950 | 59 | 1 | 0.0 | 0.0 | 0.00 | 0.26 | 0.26 | 99 | 1017.4 |
| 20260505054446 | 59 | 168 | 0.9 | 0.9 | 0.00 | 0.26 | 0.26 | 99 | 1017.2 |
| 20260505052943 | 58 | 246 | 0.0 | 0.0 | 0.00 | 0.26 | 0.26 | 99 | 1017.2 |
| 20260505051440 | 57 | 243 | 0.0 | 0.0 | 0.00 | 0.26 | 0.26 | 99 | 1017.2 |
| 20260505041427 | 57 | 196 | 0.9 | 0.9 | 0.00 | 0.26 | 0.26 | 99 | 1017.2 |
| 20260505035924 | 57 | 239 | 0.0 | 0.0 | 0.00 | 0.26 | 0.26 | 99 | 1017.7 |
| 20260505034420 | 57 | 301 | 0.0 | 0.0 | 0.05 | 0.26 | 0.26 | 99 | 1017.5 |
| 20260505032918 | 57 | 262 | 0.9 | 0.9 | 0.07 | 0.25 | 0.25 | 99 | 1017.3 |
| 20260505031414 | 57 | 247 | 0.0 | 0.9 | 0.00 | 0.24 | 0.24 | 99 | 1017.3 |
| 20260505025914 | 57 | 266 | 0.0 | 0.0 | 0.12 | 0.24 | 0.24 | 99 | 1017.4 |
| 20260505024413 | 57 | 237 | 0.0 | 0.9 | 0.05 | 0.21 | 0.21 | 99 | 1017.7 |
| 20260505022910 | 57 | 229 | 0.0 | 0.9 | 0.00 | 0.20 | 0.20 | 99 | 1017.0 |
| 20260505021407 | 57 | 271 | 0.0 | 0.0 | 0.12 | 0.20 | 0.20 | 99 | 1017.3 |
| 20260505015901 | 57 | 285 | 2.6 | 4.3 | 0.12 | 0.16 | 0.16 | 99 | 1018.5 |
| 20260505014358 | 57 | 197 | 1.7 | 2.6 | 0.35 | 0.13 | 0.13 | 99 | 1019.3 |
| 20260505012856 | 57 | 310 | 5.2 | 7.0 | 0.12 | 0.06 | 0.06 | 99 | 1019.3 |
| 20260505011352 | 57 | 278 | 2.6 | 4.3 | 0.17 | 0.04 | 0.04 | 99 | 1019.0 |
| 20260505005852 | 60 | 295 | 6.1 | 7.0 | 0.00 | 0.00 | 0.00 | 96 | 1019.3 |
| 20260505004349 | 58 | 221 | 0.0 | 0.0 | 0.00 | 0.00 | 0.00 | 99 | 1017.2 |
| 20260505002845 | 57 | 224 | 0.0 | 0.0 | 0.00 | 0.00 | 0.00 | 99 | 1017.7 |
| 20260505001343 | 57 | 214 | 0.0 | 0.0 | 0.00 | 0.00 | 0.00 | 99 | 1017.5 |
| 20260504235840 | 58 | 217 | 0.0 | 0.0 | 0.00 | 0.00 | 0.00 | 99 | 1017.7 |
| 20260504234338 | 58 | 216 | 0.0 | 0.0 | 0.00 | 0.00 | 0.00 | 99 | 1017.3 |
| 20260504232838 | 58 | 221 | 0.0 | 0.0 | 0.00 | 0.00 | 0.00 | 99 | 1017.9 |
| 20260504231334 | 59 | 215 | 0.0 | 0.9 | 0.00 | 0.00 | 0.00 | 99 | 1017.9 |
| 20260504225833 | 59 | 222 | 0.0 | 0.0 | 0.00 | 0.00 | 0.00 | 99 | 1018.0 |
| 20260504224329 | 59 | 225 | 0.0 | 0.0 | 0.00 | 0.00 | 0.00 | 98 | 1017.8 |
| 20260504222829 | 59 | 209 | 0.9 | 0.9 | 0.00 | 0.00 | 0.00 | 98 | 1018.1 |
| 20260504221327 | 59 | 192 | 0.9 | 0.9 | 0.00 | 0.00 | 0.00 | 99 | 1018.3 |
| 20260504215824 | 59 | 255 | 0.0 | 0.0 | 0.00 | 0.00 | 0.00 | 99 | 1018.6 |
| 20260504214320 | 59 | 213 | 0.9 | 0.9 | 0.00 | 0.00 | 0.00 | 98 | 1018.8 |
| 20260504212815 | 59 | 217 | 0.0 | 0.9 | 0.00 | 0.00 | 0.00 | 98 | 1018.9 |
| 20260504211310 | 59 | 238 | 0.0 | 0.0 | 0.00 | 0.00 | 0.00 | 97 | 1019.0 |
| 20260504205808 | 60 | 235 | 0.0 | 0.0 | 0.00 | 0.00 | 0.00 | 97 | 1019.2 |
| 20260504204308 | 60 | 238 | 0.0 | 0.9 | 0.00 | 0.00 | 0.00 | 96 | 1019.2 |
| 20260504202804 | 61 | 111 | 0.9 | 0.9 | 0.00 | 0.00 | 0.00 | 95 | 1019.4 |
| 20260504201301 | 62 | 106 | 0.0 | 0.0 | 0.00 | 0.00 | 0.00 | 92 | 1019.5 |
| 20260504195757 | 62 | 228 | 0.0 | 0.0 | 0.00 | 0.00 | 0.00 | 93 | 1019.7 |
| 20260504194252 | 62 | 259 | 0.0 | 0.0 | 0.00 | 0.00 | 0.00 | 93 | 1020.0 |
| 20260504192750 | 61 | 241 | 0.0 | 0.0 | 0.00 | 0.00 | 0.00 | 93 | 1019.8 |
| 20260504191249 | 62 | 255 | 0.0 | 0.0 | 0.00 | 0.00 | 0.00 | 92 | 1019.6 |
| 20260504185749 | 63 | 222 | 0.9 | 0.9 | 0.00 | 0.00 | 0.00 | 92 | 1019.4 |
| 20260504184244 | 62 | 202 | 0.0 | 0.0 | 0.00 | 0.00 | 0.00 | 93 | 1019.4 |
| 20260504182741 | 62 | 227 | 0.0 | 0.0 | 0.00 | 0.00 | 0.00 | 93 | 1019.6 |
| 20260504181238 | 62 | 207 | 0.0 | 0.0 | 0.00 | 0.00 | 0.00 | 93 | 1019.6 |
| 20260504175733 | 62 | 234 | 0.0 | 0.0 | 0.00 | 0.00 | 0.00 | 93 | 1019.5 |
| 20260504174231 | 63 | 236 | 0.0 | 0.0 | 0.00 | 0.00 | 0.00 | 92 | 1019.3 |
| 20260504172726 | 63 | 242 | 0.0 | 0.0 | 0.00 | 0.00 | 0.00 | 92 | 1019.3 |
| 20260504171222 | 64 | 233 | 0.0 | 0.0 | 0.00 | 0.00 | 0.00 | 90 | 1019.6 |